| time (UTC) | temp C | wind direction | speed KPH | gust KPH | rain 1hr cm | rain 24hr cm | rain mn cm | humidity % | barometer mb |
| 20260505053710 | 16 | 0.0 | 0.0 | 0.00 | 0.00 | 0.00 | 50 | 1023.3 | |
| 20260505052710 | 15 | 0.0 | 0.0 | 0.00 | 0.00 | 0.00 | 52 | 1023.3 | |
| 20260505051710 | 14 | 0.0 | 0.0 | 0.00 | 0.00 | 0.00 | 56 | 1023.3 | |
| 20260505050710 | 12 | 0.0 | 0.0 | 0.00 | 0.00 | 0.00 | 60 | 1023.3 | |
| 20260505041710 | 8 | 0.0 | 0.0 | 0.00 | 0.00 | 0.00 | 70 | 1023.1 | |
| 20260505040710 | 8 | 0.0 | 0.0 | 0.00 | 0.00 | 0.00 | 71 | 1023.0 | |
| 20260505035710 | 8 | 0.0 | 0.0 | 0.00 | 0.00 | 0.00 | 70 | 1023.0 | |
| 20260505034710 | 8 | 0.0 | 0.0 | 0.00 | 0.00 | 0.00 | 70 | 1023.0 | |
| 20260505033710 | 8 | 0.0 | 0.0 | 0.00 | 0.00 | 0.00 | 72 | 1023.0 | |
| 20260505032710 | 7 | 0.0 | 0.0 | 0.00 | 0.00 | 0.00 | 73 | 1023.0 | |
| 20260505031710 | 7 | 0.0 | 0.0 | 0.00 | 0.00 | 0.00 | 71 | 1023.0 | |
| 20260505030710 | 7 | 0.0 | 0.0 | 0.00 | 0.00 | 0.00 | 74 | 1023.1 | |
| 20260505025710 | 7 | 0.0 | 0.0 | 0.00 | 0.00 | 0.00 | 72 | 1023.2 | |
| 20260505024710 | 8 | 0.0 | 0.0 | 0.00 | 0.00 | 0.00 | 70 | 1023.1 | |
| 20260505023710 | 8 | 0.0 | 0.0 | 0.00 | 0.00 | 0.00 | 69 | 1023.1 | |
| 20260505022710 | 8 | 0.0 | 0.0 | 0.00 | 0.00 | 0.00 | 68 | 1023.2 | |
| 20260505021710 | 8 | 0.0 | 0.0 | 0.00 | 0.00 | 0.00 | 68 | 1023.1 | |
| 20260505020710 | 9 | 0.0 | 0.0 | 0.00 | 0.00 | 0.00 | 67 | 1023.2 | |
| 20260505015710 | 8 | 0.0 | 0.0 | 0.00 | 0.00 | 0.00 | 69 | 1023.2 | |
| 20260505014710 | 9 | 0.0 | 0.0 | 0.00 | 0.00 | 0.00 | 67 | 1023.3 | |
| 20260505013710 | 9 | 0.0 | 0.0 | 0.00 | 0.00 | 0.00 | 65 | 1023.3 | |
| 20260505012710 | 10 | 0.0 | 0.0 | 0.00 | 0.00 | 0.00 | 64 | 1023.3 | |
| 20260505011710 | 10 | 0.0 | 0.0 | 0.00 | 0.00 | 0.00 | 65 | 1023.3 | |
| 20260505010710 | 9 | 0.0 | 0.0 | 0.00 | 0.00 | 0.00 | 64 | 1023.3 | |
| 20260505005710 | 10 | 0.0 | 0.0 | 0.00 | 0.00 | 0.00 | 65 | 1023.3 | |
| 20260505004710 | 9 | 0.0 | 0.0 | 0.00 | 0.00 | 0.00 | 66 | 1023.5 | |
| 20260505003710 | 10 | 0.0 | 0.0 | 0.00 | 0.00 | 0.00 | 63 | 1023.5 | |
| 20260505002710 | 10 | 0.0 | 0.0 | 0.00 | 0.00 | 0.00 | 64 | 1023.4 | |
| 20260505001710 | 10 | 0.0 | 0.0 | 0.00 | 0.00 | 0.00 | 64 | 1023.5 | |
| 20260505000710 | 10 | 0.0 | 0.0 | 0.00 | 0.00 | 0.00 | 62 | 1023.5 | |
| 20260504235710 | 10 | 0.0 | 0.0 | 0.00 | 0.00 | 0.00 | 65 | 1023.6 | |
| 20260504234710 | 10 | 0.0 | 0.0 | 0.00 | 0.00 | 0.00 | 64 | 1023.7 | |
| 20260504233710 | 10 | 0.0 | 0.0 | 0.00 | 0.00 | 0.00 | 64 | 1023.7 | |
| 20260504232710 | 11 | 0.0 | 0.0 | 0.00 | 0.00 | 0.00 | 61 | 1023.8 | |
| 20260504231710 | 10 | 0.0 | 0.0 | 0.00 | 0.00 | 0.00 | 63 | 1023.9 | |
| 20260504230710 | 10 | 0.0 | 0.0 | 0.00 | 0.00 | 0.00 | 61 | 1023.9 | |
| 20260504225710 | 11 | 0.0 | 0.0 | 0.00 | 0.00 | 0.00 | 61 | 1023.9 | |
| 20260504224710 | 10 | 0.0 | 0.0 | 0.00 | 0.00 | 0.00 | 62 | 1024.0 | |
| 20260504223710 | 10 | 0.0 | 0.0 | 0.00 | 0.00 | 0.00 | 63 | 1024.0 | |
| 20260504222710 | 11 | 0.0 | 0.0 | 0.00 | 0.00 | 0.00 | 60 | 1024.2 | |
| 20260504221710 | 11 | 0.0 | 0.0 | 0.00 | 0.00 | 0.00 | 60 | 1024.3 | |
| 20260504220710 | 11 | 0.0 | 0.0 | 0.00 | 0.00 | 0.00 | 57 | 1024.2 | |
| 20260504215710 | 12 | 0.0 | 0.0 | 0.00 | 0.00 | 0.00 | 59 | 1023.9 | |
| 20260504214710 | 12 | 0.0 | 0.0 | 0.00 | 0.00 | 0.00 | 59 | 1023.8 | |
| 20260504213710 | 12 | 0.0 | 0.0 | 0.00 | 0.00 | 0.00 | 58 | 1023.9 | |
| 20260504212710 | 12 | 0.0 | 0.0 | 0.00 | 0.00 | 0.00 | 59 | 1023.8 | |
| 20260504211710 | 13 | 0.0 | 0.0 | 0.00 | 0.00 | 0.00 | 55 | 1023.8 | |
| 20260504210710 | 13 | 0.0 | 0.0 | 0.00 | 0.00 | 0.00 | 53 | 1023.9 | |
| 20260504205710 | 13 | 0.0 | 0.0 | 0.00 | 0.00 | 0.00 | 52 | 1023.9 | |
| 20260504204710 | 13 | 0.0 | 0.0 | 0.00 | 0.00 | 0.00 | 52 | 1023.9 | |
| 20260504203710 | 13 | 0.0 | 0.0 | 0.00 | 0.00 | 0.00 | 53 | 1023.8 | |
| 20260504202710 | 14 | 0.0 | 0.0 | 0.00 | 0.00 | 0.00 | 53 | 1023.8 | |
| 20260504201710 | 13 | 0.0 | 0.0 | 0.00 | 0.00 | 0.00 | 56 | 1023.7 | |
| 20260504200710 | 13 | 0.0 | 0.0 | 0.00 | 0.00 | 0.00 | 54 | 1023.8 | |
| 20260504195710 | 14 | 0.0 | 0.0 | 0.00 | 0.00 | 0.00 | 53 | 1023.8 | |
| 20260504194711 | 15 | 0.0 | 0.0 | 0.00 | 0.00 | 0.00 | 51 | 1023.9 | |
| 20260504193710 | 16 | 0.0 | 0.0 | 0.00 | 0.00 | 0.00 | 47 | 1023.8 | |
| 20260504192710 | 16 | 0.0 | 0.0 | 0.00 | 0.00 | 0.00 | 47 | 1023.7 | |
| 20260504191710 | 16 | 0.0 | 0.0 | 0.00 | 0.00 | 0.00 | 45 | 1023.7 | |
| 20260504190711 | 17 | 0.0 | 0.0 | 0.00 | 0.00 | 0.00 | 43 | 1023.6 | |
| 20260504185710 | 17 | 0.0 | 0.0 | 0.00 | 0.00 | 0.00 | 42 | 1023.5 | |
| 20260504184710 | 18 | 0.0 | 0.0 | 0.00 | 0.00 | 0.00 | 39 | 1023.4 | |
| 20260504183710 | 18 | 0.0 | 0.0 | 0.00 | 0.00 | 0.00 | 38 | 1023.3 | |
| 20260504182710 | 19 | 0.0 | 0.0 | 0.00 | 0.00 | 0.00 | 37 | 1023.2 | |
| 20260504181711 | 19 | 0.0 | 0.0 | 0.00 | 0.00 | 0.00 | 36 | 1023.1 | |
| 20260504180710 | 19 | 0.0 | 0.0 | 0.00 | 0.00 | 0.00 | 35 | 1023.1 | |
| 20260504175710 | 20 | 0.0 | 0.0 | 0.00 | 0.00 | 0.00 | 33 | 1023.0 | |
| 20260504174711 | 21 | 0.0 | 0.0 | 0.00 | 0.00 | 0.00 | 31 | 1023.0 | |
| 20260504173711 | 22 | 0.0 | 0.0 | 0.00 | 0.00 | 0.00 | 30 | 1022.9 | |
| 20260504172711 | 22 | 0.0 | 0.0 | 0.00 | 0.00 | 0.00 | 28 | 1022.8 | |
| 20260504171711 | 23 | 0.0 | 0.0 | 0.00 | 0.00 | 0.00 | 29 | 1022.7 | |
| 20260504170711 | 23 | 0.0 | 0.0 | 0.00 | 0.00 | 0.00 | 28 | 1022.7 | |
| 20260504150711 | 25 | 0.0 | 0.0 | 0.00 | 0.00 | 0.00 | 21 | 1023.1 | |
| 20260504140711 | 26 | 0.0 | 0.0 | 0.00 | 0.00 | 0.00 | 19 | 1023.5 | |
| 20260504110711 | 24 | 0.0 | 0.0 | 0.00 | 0.00 | 0.00 | 23 | 1025.4 | |
| 20260504081711 | 21 | 0.0 | 0.0 | 0.00 | 0.00 | 0.00 | 28 | 1026.9 | |
| 20260504080711 | 21 | 0.0 | 0.0 | 0.00 | 0.00 | 0.00 | 29 | 1027.0 |